This is the latest recevied weather packets stored in our database for station/object N5KJT. If no packets are shown the sender has not sent any weather packets the latest 10 day(s).
| Time | Temp. | Humidity | Pressure | Rain* | Wind** | Luminosity | Snow |
|---|---|---|---|---|---|---|---|
| 1788010515 | 14.44° C | 80% | 1027.9 hPa | 0 mm | - | 120 W/m² | - |
| 1788010215 | 13.89° C | 81% | 1027.8 hPa | 0 mm | - | 102 W/m² | - |
| 1788009915 | 13.89° C | 81% | 1027.8 hPa | 0 mm | - | 89 W/m² | - |
| 1788009616 | 13.33° C | 81% | 1027.8 hPa | 0 mm | - | 77 W/m² | - |
| 1788009315 | 12.78° C | 82% | 1027.8 hPa | 0 mm | - | 66 W/m² | - |
| 1788009015 | 12.78° C | 81% | 1027.8 hPa | 0 mm | - | 51 W/m² | - |
| 1788008715 | 12.78° C | 81% | 1027.7 hPa | 0 mm | - | 39 W/m² | - |
| 1788008415 | 12.78° C | 80% | 1027.7 hPa | 0 mm | - | 26 W/m² | - |
| 1788008115 | 12.78° C | 80% | 1027.7 hPa | 0 mm | - | 17 W/m² | - |
| 1788007815 | 12.78° C | 80% | 1027.6 hPa | 0 mm | - | 11 W/m² | - |
| 1788007516 | 12.78° C | 80% | 1027.6 hPa | 0 mm | - | 6 W/m² | - |
| 1788007215 | 12.78° C | 79% | 1027.4 hPa | 0 mm | - | 4 W/m² | - |
| 1788006915 | 12.78° C | 79% | 1027.3 hPa | 0 mm | - | 0 W/m² | - |
| 1788006615 | 12.78° C | 80% | 1027.3 hPa | 0 mm | - | 0 W/m² | - |
| 1788006315 | 12.78° C | 81% | 1027.2 hPa | 0 mm | - | 0 W/m² | - |
| 1788006015 | 12.22° C | 81% | 1027.3 hPa | 0 mm | - | 0 W/m² | - |
| 1788005715 | 12.22° C | 81% | 1027.3 hPa | 0 mm | - | 0 W/m² | - |
| 1788005415 | 12.22° C | 81% | 1027.3 hPa | 0 mm | - | 0 W/m² | - |
| 1788005115 | 12.78° C | 82% | 1027.3 hPa | 0 mm | - | 0 W/m² | - |
| 1788004815 | 12.78° C | 82% | 1027.3 hPa | 0 mm | - | 0 W/m² | - |
| 1788004515 | 12.78° C | 81% | 1027.2 hPa | 0 mm | - | 0 W/m² | - |
| 1788004215 | 12.78° C | 81% | 1027.2 hPa | 0 mm | - | 0 W/m² | - |
| 1788003915 | 12.78° C | 81% | 1027.2 hPa | 0 mm | - | 0 W/m² | - |
| 1788003615 | 13.33° C | 80% | 1027.2 hPa | 0 mm | - | 0 W/m² | - |
| 1788003315 | 13.33° C | 79% | 1027.2 hPa | 0 mm | - | 0 W/m² | - |
* Rain latest hour (hover to see other rain measurements)
** Current wind speed in m/s (hover to see current wind gust speed)